Location: Rancho Santa Fe Post Office
(33.0184°N, 117.2026°W)
Time: 04:09:37
(UTC+00:00)

SME Rocket - Pass Details

Date: 10 September 2024
Orbit: 550 x 2641 km, 99.9° (Epoch: 09 October)

Event Time Altitude Azimuth Distance (km) Brightness Sun altitude
Rises 12:54:19 0° 3° (N) 2,760 6.6 -8.1°
Reaches altitude 10° 12:56:31 10° 353° (N) 1,830 5.5 -7.7°
Maximum altitude 12:59:54 33° 288° (WNW) 957 3.6 -7.0°
Drops below altitude 10° 13:03:37 10° 223° (SW) 2,014 5.2 -6.2°
Sets 13:06:10 0° 214° (SW) 3,093 6.2 -5.7°
